Location: Newark
(31.0436°N, 112.2008°E)
Time: 07:41:13
(UTC+00:00)

ISS - Visible Passes

Search period start: 28 January 2020 00:00
Search period end: 07 February 2020 00:00
Orbit: 416 x 423 km, 51.6° (Epoch: 28 January)

Date Brightness Start Highest point End Pass type
(mag) Time Alt. Az. Time Alt. Az. Time Alt. Az.
05 Feb -1.5 11:28:38 10° N 11:29:43 15° N 11:29:43 15° N visible
06 Feb -1.5 10:42:03 10° NNE 10:43:10 11° NNE 10:44:16 10° NE visible
06 Feb -0.9 12:16:56 10° NW 12:17:39 15° NW 12:17:39 15° NW visible
